Change the Weather History Date:

Friday, May 16, 2014

  Actual Average Record
Temperature  
Mean Temperature 75 °F 69 °F  
Max Temperature 94 °F 85 °F 100 °F (1937)
Min Temperature 56 °F 53 °F 32 °F (1908)
Degree Days  
Heating Degree Days 0 2  
Month to date heating degree days 37 41  
Since 1 July heating degree days 2829 3087  
Cooling Degree Days 10 5  
Month to date cooling degree days 51 61  
Year to date cooling degree days 84 92  
Growing Degree Days 24 (Base 50)    
Moisture  
Dew Point 8 °F    
Average Humidity 9    
Maximum Humidity 15    
Minimum Humidity 3    
Precipitation  
Precipitation 0.00 in 0.00 in 0.35 in (1993)
Month to date precipitation T 0.09  
Year to date precipitation 0.79 3.42  
Sea Level Pressure  
Sea Level Pressure 29.85 in    
Wind  
Wind Speed 9 mph (SSW)    
Max Wind Speed 23 mph    
Max Gust Speed 30 mph    
Visibility 10 miles    
Events      
T = Trace of Precipitation, MM = Missing Value Source: NWS Daily Summary

Daily Weather History Graph

Daily Weather History Graph

Search for Another Location

Airport or City:

Trip Planner

Search our weather history database for the weather conditions in past years. The results will help you decide how hot, cold, wet, or windy it might be!

Date:

Astronomy

May. 16, 2014 Rise Set
Actual Time 5:30 AM MST 7:33 PM MST
Civil Twilight 5:02 AM MST 8:02 PM MST
Nautical Twilight 4:28 AM MST 8:36 PM MST
Astronomical Twilight 3:51 AM MST 9:13 PM MST
Moon 9:44 PM MST (5/16) 7:16 AM MST (5/16)
Length of Visible Light 14h 59m
Length of Day
14h 03m
Waning Gibbous, 95% of the Moon is Illuminated
May 16
Waning Gibbous
May 21
Last Quarter
May 28
New
Jun 5
First Quarter
Jun 12
Full

Hourly Weather History & Observations

Time (MST) Temp. Dew Point Humidity Pressure Visibility Wind Dir Wind Speed Gust Speed Precip Events Conditions
12:51 AM 69.1 °F 10.9 °F 11% 29.91 in 10.0 mi Variable 4.6 mph - N/A   Clear
1:51 AM 69.1 °F 10.0 °F 10% 29.88 in 10.0 mi South 11.5 mph - N/A   Clear
2:51 AM 62.1 °F 10.0 °F 13% 29.89 in 10.0 mi NE 3.5 mph - N/A   Clear
3:51 AM 57.9 °F 10.0 °F 15% 29.90 in 10.0 mi ENE 3.5 mph - N/A   Clear
4:51 AM 57.0 °F 10.9 °F 16% 29.90 in 10.0 mi SE 5.8 mph - N/A   Clear
5:51 AM 57.0 °F 10.0 °F 15% 29.91 in 10.0 mi Calm Calm - N/A   Clear
6:51 AM 69.1 °F 12.9 °F 11% 29.91 in 10.0 mi Calm Calm - N/A   Clear
7:51 AM 79.0 °F 10.9 °F 8% 29.90 in 10.0 mi ENE 3.5 mph - N/A   Clear
8:51 AM 84.9 °F 7.0 °F 5% 29.91 in 10.0 mi WSW 8.1 mph - N/A   Clear
9:51 AM 88.0 °F 8.1 °F 5% 29.89 in 10.0 mi WSW 13.8 mph - N/A   Clear
10:51 AM 90.0 °F 6.1 °F 4% 29.88 in 10.0 mi WSW 15.0 mph 20.7 mph N/A   Clear
11:51 AM 91.0 °F 5.0 °F 4% 29.86 in 10.0 mi SW 18.4 mph 24.2 mph N/A   Clear
12:51 PM 91.4 °F 6.8 °F 4% 30.05 in 10.0 mi WSW 16.1 mph 23.0 mph N/A   Clear
1:51 PM 93.2 °F 5.0 °F 4% 30.03 in 10.0 mi WSW 16.1 mph 31.1 mph N/A   Clear
2:51 PM 93.0 °F 3.9 °F 4% 29.81 in 10.0 mi SW 11.5 mph 21.9 mph N/A   Clear
3:51 PM 91.9 °F 5.0 °F 4% 29.80 in 10.0 mi WSW 16.1 mph 20.7 mph N/A   Clear
4:51 PM 91.0 °F 5.0 °F 4% 29.78 in 10.0 mi SW 15.0 mph - N/A   Clear
5:51 PM 90.0 °F 7.0 °F 4% 29.76 in 10.0 mi SW 13.8 mph - N/A   Clear
6:51 PM 87.1 °F 6.1 °F 5% 29.74 in 10.0 mi SW 13.8 mph - N/A   Clear
7:51 PM 79.0 °F 7.0 °F 6% 29.74 in 10.0 mi South 9.2 mph - N/A   Clear
8:51 PM 75.9 °F 7.0 °F 7% 29.74 in 10.0 mi South 12.7 mph - N/A   Clear
9:51 PM 71.1 °F 7.0 °F 8% 29.75 in 10.0 mi South 10.4 mph - N/A   Clear
10:51 PM 70.0 °F 7.0 °F 9% 29.74 in 10.0 mi Calm Calm - N/A   Clear
11:51 PM 73.9 °F 9.0 °F 8% 29.74 in 10.0 mi Calm Calm - N/A   Clear